Location: ??
(35.3149°N, 139.6204°E)
Time: 11:08:20
(UTC+00:00)

COSMOS 2428 - Pass Details

Date: 03 August 2024
Orbit: 842 x 857 km, 70.9° (Epoch: 09 September)

Event Time Altitude Azimuth Distance (km) Brightness Sun altitude
Exits shadow 18:53:35 15° 252° (WSW) 2,148 4.2 -11.6°
Maximum altitude 18:57:12 26° 301° (WNW) 1,592 3.9 -11.0°
Drops below altitude 10° 19:01:56 10° 357° (N) 2,477 5.5 -10.1°
Sets 19:04:48 0° 10° (N) 3,419 6.5 -9.6°
